When you browse on this site, cookies collect data to enhance your experience and personalize the content and advertising you see.
Visit our Privacy Policy to learn more. By continuing to use the site, you agree to this use of cookies and data.

Hourly Weather Nizhnee Isakovo

Today, 3 July, Friday

Time Temperature Precipitation Wind Pressure Humidity
00:00 +19°C° 0 mm 3 mps 739 mmHg 95%
01:00 +19°C° 0 mm 3 mps 740 mmHg 95%
02:00 +18°C° 0 mm 3 mps 740 mmHg 96%
03:00 +19°C° 0 mm 3 mps 740 mmHg 96%
04:00 +19°C° 0 mm 3 mps 740 mmHg 95%
05:00 +19°C° 0 mm 3 mps 740 mmHg 95%
06:00 +21°C° 0.1 mm 3 mps 740 mmHg 92%
07:00 +22°C° 0.1 mm 3 mps 740 mmHg 88%
08:00 +25°C° 0.1 mm 3 mps 741 mmHg 85%
09:00 +25°C° 0.9 mm 3 mps 741 mmHg 82%
10:00 +26°C° 0.9 mm 3 mps 741 mmHg 78%
11:00 +27°C° 0.9 mm 4 mps 741 mmHg 75%
12:00 +27°C° 1.7 mm 3 mps 741 mmHg 76%
13:00 +27°C° 1.7 mm 3 mps 741 mmHg 77%
14:00 +27°C° 1.7 mm 3 mps 741 mmHg 78%
15:00 +26°C° 0.4 mm 2 mps 741 mmHg 77%
16:00 +26°C° 0.4 mm 2 mps 741 mmHg 77%
17:00 +26°C° 0.4 mm 1 mps 740 mmHg 76%
18:00 +25°C° 0.1 mm 1 mps 740 mmHg 81%
19:00 +24°C° 0.1 mm 2 mps 740 mmHg 85%
20:00 +21°C° 0.1 mm 2 mps 740 mmHg 89%
21:00 +21°C° 0.4 mm 2 mps 740 mmHg 91%
22:00 +20°C° 0.4 mm 2 mps 740 mmHg 92%
23:00 +20°C° 0.4 mm 3 mps 740 mmHg 93%

Tomorrow, 4 July, Saturday

Time Temperature Precipitation Wind Pressure Humidity
00:00 +19°C° 0.1 mm 3 mps 740 mmHg 94%
01:00 +19°C° 0.1 mm 3 mps 740 mmHg 94%
02:00 +19°C° 0.1 mm 3 mps 740 mmHg 94%
03:00 +19°C° 0 mm 3 mps 740 mmHg 94%
04:00 +19°C° 0 mm 3 mps 740 mmHg 93%
05:00 +20°C° 0 mm 3 mps 740 mmHg 93%
06:00 +21°C° 0.1 mm 3 mps 740 mmHg 90%
07:00 +22°C° 0.1 mm 3 mps 740 mmHg 86%
08:00 +25°C° 0.1 mm 4 mps 740 mmHg 83%
09:00 +25°C° 0.5 mm 4 mps 740 mmHg 79%
10:00 +26°C° 0.5 mm 4 mps 740 mmHg 75%
11:00 +27°C° 0.5 mm 4 mps 740 mmHg 72%
12:00 +27°C° 0.3 mm 4 mps 740 mmHg 71%
13:00 +27°C° 0.3 mm 3 mps 740 mmHg 71%
14:00 +27°C° 0.3 mm 3 mps 740 mmHg 71%
15:00 +27°C° 0.2 mm 3 mps 740 mmHg 76%
16:00 +26°C° 0.2 mm 2 mps 740 mmHg 80%
17:00 +25°C° 0.2 mm 2 mps 739 mmHg 85%
18:00 +24°C° 0 mm 2 mps 739 mmHg 85%
19:00 +23°C° 0 mm 2 mps 739 mmHg 86%
20:00 +21°C° 0 mm 2 mps 739 mmHg 86%
21:00 +20°C° 0 mm 2 mps 739 mmHg 87%
22:00 +19°C° 0 mm 2 mps 739 mmHg 88%
23:00 +19°C° 0 mm 2 mps 739 mmHg 88%

Day after tomorrow, 5 July, Sunday

Time Temperature Precipitation Wind Pressure Humidity
00:00 +19°C° 0 mm 2 mps 739 mmHg 90%
01:00 +19°C° 0 mm 2 mps 739 mmHg 92%
02:00 +19°C° 0 mm 2 mps 739 mmHg 94%
03:00 +19°C° 0.3 mm 2 mps 739 mmHg 94%
04:00 +20°C° 0.3 mm 1 mps 739 mmHg 95%
05:00 +20°C° 0.3 mm 1 mps 739 mmHg 95%
06:00 +21°C° 0.2 mm 1 mps 739 mmHg 93%
07:00 +21°C° 0.2 mm 1 mps 740 mmHg 92%
08:00 +22°C° 0.2 mm 1 mps 740 mmHg 90%
09:00 +23°C° 0.4 mm 1 mps 739 mmHg 85%
10:00 +24°C° 0.4 mm 1 mps 739 mmHg 80%
11:00 +25°C° 0.4 mm 1 mps 739 mmHg 76%
12:00 +25°C° 0.8 mm 1 mps 739 mmHg 76%
13:00 +25°C° 0.8 mm 1 mps 739 mmHg 77%
14:00 +26°C° 0.8 mm 1 mps 739 mmHg 78%
15:00 +24°C° 1.9 mm 2 mps 739 mmHg 83%
16:00 +23°C° 1.9 mm 2 mps 738 mmHg 89%
17:00 +20°C° 1.9 mm 3 mps 738 mmHg 94%
18:00 +20°C° 0.7 mm 2 mps 738 mmHg 95%
19:00 +19°C° 0.7 mm 2 mps 738 mmHg 96%
20:00 +20°C° 0.7 mm 1 mps 738 mmHg 97%
21:00 +18°C° 0.3 mm 2 mps 738 mmHg 97%
22:00 +18°C° 0.3 mm 2 mps 738 mmHg 97%
23:00 +18°C° 0.3 mm 2 mps 739 mmHg 97%

6 July, Monday

Time Temperature Precipitation Wind Pressure Humidity
00:00 +18°C° 0 mm 2 mps 739 mmHg 97%
01:00 +18°C° 0 mm 2 mps 739 mmHg 97%
02:00 +18°C° 0 mm 2 mps 739 mmHg 97%
03:00 +19°C° 0 mm 1 mps 739 mmHg 96%
04:00 +19°C° 0 mm 1 mps 739 mmHg 95%
05:00 +19°C° 0 mm 1 mps 739 mmHg 94%
06:00 +20°C° 0 mm 1 mps 739 mmHg 89%
07:00 +22°C° 0 mm 1 mps 739 mmHg 85%
08:00 +23°C° 0 mm 1 mps 739 mmHg 80%
09:00 +24°C° 0 mm 1 mps 739 mmHg 75%
10:00 +25°C° 0 mm 1 mps 739 mmHg 70%
11:00 +26°C° 0 mm 1 mps 739 mmHg 65%
12:00 +26°C° 0 mm 1 mps 739 mmHg 64%
13:00 +27°C° 0 mm 2 mps 739 mmHg 62%
14:00 +27°C° 0 mm 2 mps 738 mmHg 61%
15:00 +27°C° 0 mm 2 mps 738 mmHg 64%
16:00 +27°C° 0 mm 2 mps 738 mmHg 67%
17:00 +27°C° 0 mm 2 mps 738 mmHg 70%
18:00 +25°C° 0 mm 2 mps 738 mmHg 74%
19:00 +24°C° 0 mm 2 mps 738 mmHg 78%
20:00 +21°C° 0 mm 2 mps 738 mmHg 82%
21:00 +20°C° 0 mm 2 mps 738 mmHg 84%
22:00 +20°C° 0 mm 2 mps 738 mmHg 86%
23:00 +19°C° 0 mm 2 mps 738 mmHg 89%

7 July, Tuesday

Time Temperature Precipitation Wind Pressure Humidity
00:00 +19°C° 0 mm 2 mps 738 mmHg 90%
01:00 +18°C° 0 mm 2 mps 738 mmHg 91%
02:00 +18°C° 0 mm 2 mps 738 mmHg 93%
03:00 +19°C° 0 mm 2 mps 738 mmHg 92%
04:00 +19°C° 0 mm 2 mps 738 mmHg 92%
05:00 +20°C° 0 mm 2 mps 738 mmHg 91%
06:00 +21°C° 0 mm 2 mps 738 mmHg 88%
07:00 +22°C° 0 mm 3 mps 738 mmHg 84%
08:00 +25°C° 0 mm 3 mps 738 mmHg 81%
09:00 +26°C° 0 mm 3 mps 738 mmHg 76%
10:00 +27°C° 0 mm 3 mps 737 mmHg 72%
11:00 +28°C° 0 mm 3 mps 737 mmHg 68%
12:00 +28°C° 0 mm 3 mps 737 mmHg 67%
13:00 +28°C° 0 mm 3 mps 737 mmHg 66%
14:00 +29°C° 0 mm 3 mps 736 mmHg 64%
15:00 +29°C° 0 mm 3 mps 736 mmHg 68%
16:00 +29°C° 0 mm 2 mps 736 mmHg 71%
17:00 +29°C° 0 mm 2 mps 736 mmHg 74%
18:00 +27°C° 1.9 mm 2 mps 736 mmHg 78%
19:00 +25°C° 1.9 mm 2 mps 736 mmHg 83%
20:00 +22°C° 1.9 mm 3 mps 736 mmHg 88%
21:00 +21°C° 1.2 mm 2 mps 736 mmHg 89%
22:00 +20°C° 1.2 mm 2 mps 736 mmHg 89%
23:00 +21°C° 1.2 mm 1 mps 735 mmHg 90%

8 July, Wednesday

Time Temperature Precipitation Wind Pressure Humidity
00:00 +20°C° 0.7 mm 1 mps 735 mmHg 92%
01:00 +19°C° 0.7 mm 2 mps 735 mmHg 94%
02:00 +18°C° 0.7 mm 2 mps 735 mmHg 96%
03:00 +18°C° 0.7 mm 3 mps 736 mmHg 96%
04:00 +18°C° 0.7 mm 3 mps 736 mmHg 96%
05:00 +18°C° 0.7 mm 4 mps 736 mmHg 96%
06:00 +18°C° 0.2 mm 4 mps 736 mmHg 94%
07:00 +18°C° 0.2 mm 4 mps 736 mmHg 92%
08:00 +19°C° 0.2 mm 4 mps 736 mmHg 90%
09:00 +19°C° 0 mm 5 mps 736 mmHg 87%
10:00 +20°C° 0 mm 5 mps 737 mmHg 84%
11:00 +21°C° 0 mm 5 mps 737 mmHg 81%
12:00 +21°C° 0 mm 5 mps 737 mmHg 79%
13:00 +21°C° 0 mm 5 mps 737 mmHg 77%
14:00 +22°C° 0 mm 5 mps 737 mmHg 75%
15:00 +21°C° 0 mm 4 mps 737 mmHg 76%
16:00 +21°C° 0 mm 4 mps 737 mmHg 77%
17:00 +21°C° 0 mm 4 mps 737 mmHg 78%
18:00 +20°C° 0 mm 3 mps 737 mmHg 80%
19:00 +18°C° 0 mm 3 mps 737 mmHg 83%
20:00 +17°C° 0 mm 3 mps 738 mmHg 85%
21:00 +17°C° 0 mm 3 mps 738 mmHg 85%
22:00 +17°C° 0 mm 3 mps 738 mmHg 85%
23:00 +16°C° 0 mm 3 mps 738 mmHg 84%
Show more